Weather in Streletskoe

Russia / Astrakhan Oblast     46°27′47″N   47°58′01″E
temp.,
°C
wind,
m/s
gust,
m/s
humid.,
%
clouds,
%
prec.,
mm/h
press.,
hPa
HPBL,
m
1 august, sun
sun101:00+25sse235115 0.0 101186
04:00+24sse225693 0.0 101158
07:00+26sse224881 0.0 1012129
10:00+32se342839 0.0 10121179
13:00+36ssw34235 0.0 10112719
16:00+37ssw542450 0.0 10103019
19:00+35s552343 0.1 10101308
22:00+29ssw36335 0.1 1011133
2 august, mon
mon201:00+27ssw23395 0.0 101169
04:00+26sse113893 0.0 101125
07:00+28ne123124 0.0 101278
10:00+35ese34177 0.0 1012965
13:00+40s351119 0.0 10113997
16:00+40sse65994 0.0 10104357
19:00+37se6812100 0.0 1010677
22:00+30sse462493 0.0 1011113
3 august, tue
tue301:00+28sse3533100 0.0 101190
04:00+26ssw123696 0.0 101114
07:00+29ene122894 0.0 101240
10:00+36ese22134 0.0 1012736
13:00+41ssw3481 0.0 10104344
16:00+42s64831 0.0 10094960
19:00+39s67101 0.0 10091264
22:00+31ssw35195 0.0 101191
4 august, wed
wed401:00+29ssw34230 0.0 101066
04:00+27sw23360 0.0 101045
07:00+29ssw23330 0.0 101185
10:00+36s34153 0.0 1011760
13:00+41sw4591 0.0 10103130
16:00+41wsw5495 0.0 10094055
19:00+39sw35125 0.0 1009680
22:00+31wsw34245 0.0 101190
5 august, thu
thu501:00+29w45285 0.0 101190
04:00+27nnw4739100 0.0 1010147
07:00+29nne384255 0.0 1011260
10:00+32nnw10103744 0.0 10131143
13:00+27n5649100 0.1 1013346
16:00+32nw463369 0.1 10131409
19:00+33n55310 0.0 10121876
22:00+28n35370 0.0 1013143